Retour au catalogue

STARLINK-31873

ActifCommunicationsVLEO
NORAD 59790·PAYLOAD·🇺🇸 United States

Lancé May 18, 2024 depuis Cape Canaveral Space Force Station

Loading…

Prochains Passages (prochaines 24 heures)

TLE

FraisSource: CelesTrak SupGP

Époque: Sep 15, 2026, 03:20 UTC

1 59790C 24093J   26258.13937500 -.00055199  00000+0 -19994-2 0  2581
2 59790  43.0022 218.8433 0001306 269.9577 354.3426 15.27603933    14

Suivez STARLINK-31873 en temps réel avec AllMySat

Download on the App Store